Time,TemperatureF,DewpointF,PressureIn,WindDirection,WindDirectionDegrees,WindSpeedMPH,WindSpeedGustMPH,Humidity,HourlyPrecipIn,Conditions,Clouds,dailyrainin,SoftwareType,DateUTC
2013-03-16 00:04:00,48.2,44.0,29.31,NNW,337,0.0,-999.0,84,0.00,,,0.00,Rainwise IP-100,2013-03-16 07:04:00,
2013-03-16 00:09:00,48.1,44.0,29.31,NNW,337,0.0,-999.0,85,0.00,,,0.00,Rainwise IP-100,2013-03-16 07:09:00,
2013-03-16 00:14:00,47.7,43.0,29.31,NNW,337,0.0,-999.0,85,0.00,,,0.00,Rainwise IP-100,2013-03-16 07:14:00,
2013-03-16 00:19:00,47.2,42.0,29.31,NNW,337,0.0,-999.0,85,0.00,,,0.00,Rainwise IP-100,2013-03-16 07:19:00,
2013-03-16 00:24:00,47.0,43.0,29.30,NNW,337,0.0,-999.0,86,0.00,,,0.00,Rainwise IP-100,2013-03-16 07:24:00,
2013-03-16 00:29:00,47.0,43.0,29.31,NNW,337,0.0,-999.0,87,0.00,,,0.00,Rainwise IP-100,2013-03-16 07:29:00,
2013-03-16 00:34:00,46.9,43.0,29.31,NNW,337,0.0,-999.0,87,0.00,,,0.00,Rainwise IP-100,2013-03-16 07:34:00,
2013-03-16 00:39:00,46.8,43.0,29.30,NNW,337,0.0,-999.0,87,0.00,,,0.00,Rainwise IP-100,2013-03-16 07:39:00,
2013-03-16 00:44:00,46.7,43.0,29.30,NNW,337,0.0,-999.0,88,0.00,,,0.00,Rainwise IP-100,2013-03-16 07:44:00,
2013-03-16 00:49:00,46.7,43.0,29.30,NNW,337,0.0,-999.0,88,0.00,,,0.00,Rainwise IP-100,2013-03-16 07:49:00,
2013-03-16 00:54:00,46.6,43.0,29.30,NNW,337,0.0,-999.0,88,0.00,,,0.00,Rainwise IP-100,2013-03-16 07:54:00,
2013-03-16 00:59:00,46.2,42.0,29.30,NNW,337,0.0,-999.0,88,0.00,,,0.00,Rainwise IP-100,2013-03-16 07:59:00,
2013-03-16 01:04:00,45.7,42.0,29.30,WSW,247,1.2,-999.0,88,0.00,,,0.00,Rainwise IP-100,2013-03-16 08:04:00,
2013-03-16 01:09:00,45.6,43.0,29.30,WSW,247,0.0,-999.0,89,0.00,,,0.00,Rainwise IP-100,2013-03-16 08:09:00,
2013-03-16 01:14:00,45.9,43.0,29.29,WSW,247,1.2,-999.0,89,0.00,,,0.00,Rainwise IP-100,2013-03-16 08:14:00,
2013-03-16 01:19:00,45.9,43.0,29.30,WSW,247,0.0,-999.0,90,0.00,,,0.00,Rainwise IP-100,2013-03-16 08:19:00,
2013-03-16 01:24:00,45.7,43.0,29.30,WSW,247,0.0,-999.0,90,0.00,,,0.00,Rainwise IP-100,2013-03-16 08:24:00,
2013-03-16 01:29:00,45.6,43.0,29.30,WSW,247,0.0,-999.0,90,0.00,,,0.00,Rainwise IP-100,2013-03-16 08:29:00,
2013-03-16 01:34:00,45.3,42.0,29.30,WSW,247,0.0,-999.0,90,0.00,,,0.00,Rainwise IP-100,2013-03-16 08:34:00,
2013-03-16 01:39:00,45.3,42.0,29.30,WSW,247,0.0,-999.0,90,0.00,,,0.00,Rainwise IP-100,2013-03-16 08:39:00,
2013-03-16 01:44:00,45.4,42.0,29.30,WSW,247,1.2,-999.0,90,0.00,,,0.00,Rainwise IP-100,2013-03-16 08:44:00,
2013-03-16 01:49:00,45.2,42.0,29.30,WSW,247,0.0,-999.0,91,0.00,,,0.00,Rainwise IP-100,2013-03-16 08:49:00,
2013-03-16 01:54:00,45.0,42.0,29.31,WSW,247,0.0,-999.0,91,0.00,,,0.00,Rainwise IP-100,2013-03-16 08:54:00,
2013-03-16 01:59:00,44.9,42.0,29.30,WSW,247,0.0,-999.0,91,0.00,,,0.00,Rainwise IP-100,2013-03-16 08:59:00,
2013-03-16 02:04:00,44.5,42.0,29.31,WSW,247,0.0,-999.0,91,0.00,,,0.00,Rainwise IP-100,2013-03-16 09:04:00,
2013-03-16 02:09:00,44.1,41.0,29.31,WSW,247,0.0,-999.0,91,0.00,,,0.00,Rainwise IP-100,2013-03-16 09:09:00,
2013-03-16 02:14:00,44.0,41.0,29.31,WSW,247,1.6,-999.0,91,0.00,,,0.00,Rainwise IP-100,2013-03-16 09:14:00,
2013-03-16 02:19:00,44.0,41.0,29.31,WSW,247,0.0,-999.0,91,0.00,,,0.00,Rainwise IP-100,2013-03-16 09:19:00,
2013-03-16 02:24:00,44.2,42.0,29.31,WSW,247,0.0,-999.0,92,0.00,,,0.00,Rainwise IP-100,2013-03-16 09:24:00,
2013-03-16 02:29:00,44.3,42.0,29.31,WSW,247,0.0,-999.0,92,0.00,,,0.00,Rainwise IP-100,2013-03-16 09:29:00,
2013-03-16 02:35:00,44.4,42.0,29.31,WSW,247,0.0,-999.0,92,0.00,,,0.00,Rainwise IP-100,2013-03-16 09:35:00,
2013-03-16 02:39:00,44.4,42.0,29.31,WSW,247,0.0,-999.0,93,0.00,,,0.00,Rainwise IP-100,2013-03-16 09:39:00,
2013-03-16 02:45:00,44.0,42.0,29.31,WSW,247,3.0,-999.0,93,0.00,,,0.00,Rainwise IP-100,2013-03-16 09:45:00,
2013-03-16 02:50:00,43.6,42.0,29.31,WSW,247,1.2,-999.0,92,0.00,,,0.00,Rainwise IP-100,2013-03-16 09:50:00,
2013-03-16 02:55:00,43.6,42.0,29.31,WSW,247,1.2,-999.0,93,0.00,,,0.00,Rainwise IP-100,2013-03-16 09:55:00,
2013-03-16 03:00:00,43.5,42.0,29.31,WSW,247,1.2,-999.0,93,0.00,,,0.00,Rainwise IP-100,2013-03-16 10:00:00,
2013-03-16 03:05:00,43.5,42.0,29.31,WSW,247,0.0,-999.0,93,0.00,,,0.00,Rainwise IP-100,2013-03-16 10:05:00,
2013-03-16 03:10:00,43.7,42.0,29.30,WSW,247,0.0,-999.0,94,0.00,,,0.00,Rainwise IP-100,2013-03-16 10:10:00,
2013-03-16 03:15:00,43.5,42.0,29.30,WSW,247,1.9,-999.0,93,0.00,,,0.00,Rainwise IP-100,2013-03-16 10:15:00,
2013-03-16 03:20:00,43.1,41.0,29.31,WSW,247,0.0,-999.0,93,0.00,,,0.00,Rainwise IP-100,2013-03-16 10:20:00,
2013-03-16 03:25:00,43.2,41.0,29.30,WSW,247,0.0,-999.0,94,0.00,,,0.00,Rainwise IP-100,2013-03-16 10:25:00,
2013-03-16 03:30:00,43.5,42.0,29.30,WSW,247,0.0,-999.0,94,0.00,,,0.00,Rainwise IP-100,2013-03-16 10:30:00,
2013-03-16 03:35:00,43.5,42.0,29.30,WSW,247,0.0,-999.0,94,0.00,,,0.00,Rainwise IP-100,2013-03-16 10:35:00,
2013-03-16 03:40:00,43.1,41.0,29.30,WSW,247,1.4,-999.0,94,0.00,,,0.00,Rainwise IP-100,2013-03-16 10:40:00,
2013-03-16 03:45:00,42.7,41.0,29.30,WSW,247,1.6,-999.0,94,0.00,,,0.00,Rainwise IP-100,2013-03-16 10:45:00,
2013-03-16 03:50:00,42.5,41.0,29.29,WSW,247,0.0,-999.0,94,0.00,,,0.00,Rainwise IP-100,2013-03-16 10:50:00,
2013-03-16 03:55:00,42.4,40.0,29.29,WSW,247,2.1,-999.0,94,0.00,,,0.00,Rainwise IP-100,2013-03-16 10:55:00,
2013-03-16 04:00:00,42.1,40.0,29.29,WSW,247,1.9,-999.0,94,0.00,,,0.00,Rainwise IP-100,2013-03-16 11:00:00,
2013-03-16 04:05:00,42.1,40.0,29.29,WSW,247,0.0,-999.0,94,0.00,,,0.00,Rainwise IP-100,2013-03-16 11:05:00,
2013-03-16 04:10:00,42.3,40.0,29.30,WSW,247,0.0,-999.0,94,0.00,,,0.00,Rainwise IP-100,2013-03-16 11:10:00,
2013-03-16 04:15:00,42.1,41.0,29.30,WSW,247,0.0,-999.0,95,0.00,,,0.00,Rainwise IP-100,2013-03-16 11:15:00,
2013-03-16 04:20:00,41.8,41.0,29.30,WSW,247,0.0,-999.0,95,0.00,,,0.00,Rainwise IP-100,2013-03-16 11:20:00,
2013-03-16 04:25:00,41.6,41.0,29.29,WSW,247,0.0,-999.0,95,0.00,,,0.00,Rainwise IP-100,2013-03-16 11:25:00,
2013-03-16 04:30:00,41.4,40.0,29.30,WSW,247,0.0,-999.0,95,0.00,,,0.00,Rainwise IP-100,2013-03-16 11:30:00,
2013-03-16 04:35:00,41.2,40.0,29.30,WSW,247,0.0,-999.0,96,0.00,,,0.00,Rainwise IP-100,2013-03-16 11:35:00,
2013-03-16 04:40:00,41.1,40.0,29.30,WSW,247,2.1,-999.0,96,0.00,,,0.00,Rainwise IP-100,2013-03-16 11:40:00,
2013-03-16 04:45:00,40.7,40.0,29.30,WSW,247,2.3,-999.0,96,0.00,,,0.00,Rainwise IP-100,2013-03-16 11:45:00,
2013-03-16 04:50:00,40.6,40.0,29.29,WSW,247,2.1,-999.0,96,0.00,,,0.00,Rainwise IP-100,2013-03-16 11:50:00,
2013-03-16 04:55:00,41.2,40.0,29.29,WSW,247,0.0,-999.0,96,0.00,,,0.00,Rainwise IP-100,2013-03-16 11:55:00,
2013-03-16 05:00:00,41.5,41.0,29.29,WSW,247,0.0,-999.0,96,0.00,,,0.00,Rainwise IP-100,2013-03-16 12:00:00,
2013-03-16 05:05:00,41.4,40.0,29.29,WSW,247,0.0,-999.0,97,0.00,,,0.00,Rainwise IP-100,2013-03-16 12:05:00,
2013-03-16 05:10:00,41.1,40.0,29.29,WSW,247,1.6,-999.0,97,0.00,,,0.00,Rainwise IP-100,2013-03-16 12:10:00,
2013-03-16 05:15:00,40.8,40.0,29.29,WSW,247,0.0,-999.0,97,0.00,,,0.00,Rainwise IP-100,2013-03-16 12:15:00,
2013-03-16 05:20:00,40.8,40.0,29.30,WSW,247,0.0,-999.0,97,0.00,,,0.00,Rainwise IP-100,2013-03-16 12:20:00,
2013-03-16 05:25:00,40.8,40.0,29.29,WSW,247,0.0,-999.0,97,0.00,,,0.00,Rainwise IP-100,2013-03-16 12:25:00,
2013-03-16 05:30:00,40.6,40.0,29.28,WSW,247,0.0,-999.0,97,0.00,,,0.00,Rainwise IP-100,2013-03-16 12:30:00,
2013-03-16 05:35:00,40.1,39.0,29.29,WSW,247,1.9,-999.0,97,0.00,,,0.00,Rainwise IP-100,2013-03-16 12:35:00,
2013-03-16 05:40:00,39.9,39.0,29.29,WSW,247,0.0,-999.0,97,0.00,,,0.00,Rainwise IP-100,2013-03-16 12:40:00,
2013-03-16 05:45:00,40.0,39.0,29.29,WSW,247,1.6,-999.0,97,0.00,,,0.00,Rainwise IP-100,2013-03-16 12:45:00,
2013-03-16 05:50:00,39.9,39.0,29.29,WSW,247,1.2,-999.0,97,0.00,,,0.00,Rainwise IP-100,2013-03-16 12:50:00,
2013-03-16 05:55:00,40.1,39.0,29.29,WSW,247,0.0,-999.0,97,0.00,,,0.00,Rainwise IP-100,2013-03-16 12:55:00,
2013-03-16 06:00:00,40.3,40.0,29.29,WSW,247,0.0,-999.0,98,0.00,,,0.00,Rainwise IP-100,2013-03-16 13:00:00,
2013-03-16 06:05:00,40.3,40.0,29.29,WSW,247,0.0,-999.0,98,0.00,,,0.00,Rainwise IP-100,2013-03-16 13:05:00,
2013-03-16 06:10:00,39.9,40.0,29.29,WSW,247,1.4,-999.0,98,0.00,,,0.00,Rainwise IP-100,2013-03-16 13:10:00,
2013-03-16 06:15:00,39.6,40.0,29.29,WSW,247,0.0,-999.0,98,0.00,,,0.00,Rainwise IP-100,2013-03-16 13:15:00,
2013-03-16 06:20:00,39.6,40.0,29.29,WSW,247,0.0,-999.0,98,0.00,,,0.00,Rainwise IP-100,2013-03-16 13:20:00,
2013-03-16 06:25:00,39.7,40.0,29.29,WSW,247,1.9,-999.0,98,0.00,,,0.00,Rainwise IP-100,2013-03-16 13:25:00,
2013-03-16 06:30:00,39.6,40.0,29.29,WSW,247,1.6,-999.0,98,0.00,,,0.00,Rainwise IP-100,2013-03-16 13:30:00,
2013-03-16 06:35:00,39.5,40.0,29.29,WSW,247,0.0,-999.0,98,0.00,,,0.00,Rainwise IP-100,2013-03-16 13:35:00,
2013-03-16 06:40:00,39.8,40.0,29.30,WSW,247,0.0,-999.0,98,0.00,,,0.00,Rainwise IP-100,2013-03-16 13:40:00,
2013-03-16 06:45:00,39.8,40.0,29.29,WSW,247,1.4,-999.0,98,0.00,,,0.00,Rainwise IP-100,2013-03-16 13:45:00,
2013-03-16 06:50:00,39.4,39.0,29.29,WSW,247,0.0,-999.0,98,0.00,,,0.00,Rainwise IP-100,2013-03-16 13:50:00,
2013-03-16 06:55:00,39.2,39.0,29.29,WSW,247,0.0,-999.0,98,0.00,,,0.00,Rainwise IP-100,2013-03-16 13:55:00,
2013-03-16 07:00:00,39.2,39.0,29.30,WSW,247,0.0,-999.0,98,0.00,,,0.00,Rainwise IP-100,2013-03-16 14:00:00,
2013-03-16 07:05:00,39.2,39.0,29.30,WSW,247,0.0,-999.0,98,0.00,,,0.00,Rainwise IP-100,2013-03-16 14:05:00,
2013-03-16 07:10:00,39.0,39.0,29.30,WSW,247,0.0,-999.0,98,0.00,,,0.00,Rainwise IP-100,2013-03-16 14:10:00,
2013-03-16 07:15:00,38.8,39.0,29.31,WSW,247,1.4,-999.0,98,0.00,,,0.00,Rainwise IP-100,2013-03-16 14:15:00,
2013-03-16 07:20:00,38.7,39.0,29.30,WSW,247,2.1,-999.0,98,0.00,,,0.00,Rainwise IP-100,2013-03-16 14:20:00,
2013-03-16 07:25:00,38.6,39.0,29.31,WSW,247,1.4,-999.0,98,0.00,,,0.00,Rainwise IP-100,2013-03-16 14:25:00,
2013-03-16 07:30:00,39.0,39.0,29.31,WSW,247,0.0,-999.0,98,0.00,,,0.00,Rainwise IP-100,2013-03-16 14:30:00,
2013-03-16 07:35:00,39.4,39.0,29.31,WSW,247,0.0,-999.0,98,0.00,,,0.00,Rainwise IP-100,2013-03-16 14:35:00,
2013-03-16 07:40:00,39.4,39.0,29.31,WSW,247,0.0,-999.0,99,0.00,,,0.00,Rainwise IP-100,2013-03-16 14:40:00,
2013-03-16 07:45:00,39.3,39.0,29.31,WSW,247,0.0,-999.0,99,0.00,,,0.00,Rainwise IP-100,2013-03-16 14:45:00,
2013-03-16 07:50:00,39.4,39.0,29.31,WSW,247,0.0,-999.0,99,0.00,,,0.00,Rainwise IP-100,2013-03-16 14:50:00,
2013-03-16 07:55:00,39.9,40.0,29.31,ESE,112,0.0,-999.0,99,0.00,,,0.00,Rainwise IP-100,2013-03-16 14:55:00,
2013-03-16 08:00:00,40.2,40.0,29.32,ESE,112,0.0,-999.0,98,0.00,,,0.00,Rainwise IP-100,2013-03-16 15:00:00,
2013-03-16 08:05:00,40.5,40.0,29.32,ESE,112,0.0,-999.0,98,0.00,,,0.00,Rainwise IP-100,2013-03-16 15:05:00,
2013-03-16 08:10:00,41.0,40.0,29.32,ESE,112,0.0,-999.0,98,0.00,,,0.00,Rainwise IP-100,2013-03-16 15:10:00,
2013-03-16 08:15:00,41.5,42.0,29.32,ESE,112,0.0,-999.0,99,0.00,,,0.00,Rainwise IP-100,2013-03-16 15:15:00,
2013-03-16 08:20:00,42.0,42.0,29.33,ESE,112,0.0,-999.0,99,0.00,,,0.00,Rainwise IP-100,2013-03-16 15:20:00,
2013-03-16 08:25:00,42.7,43.0,29.33,ESE,112,0.0,-999.0,99,0.00,,,0.00,Rainwise IP-100,2013-03-16 15:25:00,
2013-03-16 08:30:00,43.8,44.0,29.33,ESE,112,0.0,-999.0,99,0.00,,,0.00,Rainwise IP-100,2013-03-16 15:30:00,
2013-03-16 08:35:00,44.8,45.0,29.33,ESE,112,0.0,-999.0,99,0.00,,,0.00,Rainwise IP-100,2013-03-16 15:35:00,
2013-03-16 08:40:00,45.2,44.0,29.33,ESE,112,1.9,-999.0,98,0.00,,,0.00,Rainwise IP-100,2013-03-16 15:40:00,
2013-03-16 08:45:00,45.6,45.0,29.33,SSE,157,1.9,-999.0,98,0.00,,,0.00,Rainwise IP-100,2013-03-16 15:45:00,
2013-03-16 08:50:00,46.3,45.0,29.33,SSE,157,2.3,-999.0,96,0.00,,,0.00,Rainwise IP-100,2013-03-16 15:50:00,
2013-03-16 08:55:00,46.8,45.0,29.33,ESE,112,1.9,-999.0,95,0.00,,,0.00,Rainwise IP-100,2013-03-16 15:55:00,
2013-03-16 09:00:00,47.1,45.0,29.33,ESE,112,2.1,-999.0,94,0.00,,,0.00,Rainwise IP-100,2013-03-16 16:00:00,
2013-03-16 09:05:00,47.7,46.0,29.34,ESE,112,2.1,-999.0,93,0.00,,,0.00,Rainwise IP-100,2013-03-16 16:05:00,
2013-03-16 09:11:00,47.9,46.0,29.34,ESE,112,1.6,-999.0,92,0.00,,,0.00,Rainwise IP-100,2013-03-16 16:11:00,
2013-03-16 09:16:00,48.4,46.0,29.34,ESE,112,2.3,-999.0,91,0.00,,,0.00,Rainwise IP-100,2013-03-16 16:16:00,
2013-03-16 09:21:00,49.3,47.0,29.34,ESE,112,1.6,-999.0,90,0.00,,,0.00,Rainwise IP-100,2013-03-16 16:21:00,
2013-03-16 09:25:00,50.0,47.0,29.34,ESE,112,1.4,-999.0,89,0.00,,,0.00,Rainwise IP-100,2013-03-16 16:25:00,
2013-03-16 09:31:00,50.9,47.5,29.34,ESE,112,1.4,-999.0,87,0.00,,,0.00,Rainwise IP-100,2013-03-16 16:31:00,
2013-03-16 09:36:00,51.6,47.5,29.34,ESE,112,0.0,-999.0,85,0.00,,,0.00,Rainwise IP-100,2013-03-16 16:36:00,
2013-03-16 09:41:00,53.0,47.5,29.34,ESE,112,0.0,-999.0,82,0.00,,,0.00,Rainwise IP-100,2013-03-16 16:41:00,
2013-03-16 09:46:00,54.9,49.0,29.33,ESE,112,0.0,-999.0,79,0.00,,,0.00,Rainwise IP-100,2013-03-16 16:46:00,
2013-03-16 09:51:00,55.3,48.0,29.33,SSE,157,2.6,-999.0,77,0.00,,,0.00,Rainwise IP-100,2013-03-16 16:51:00,
2013-03-16 09:56:00,55.0,47.5,29.34,SSE,157,0.0,-999.0,76,0.00,,,0.00,Rainwise IP-100,2013-03-16 16:56:00,
2013-03-16 10:01:00,55.6,48.0,29.33,SSE,157,3.0,-999.0,75,0.00,,,0.00,Rainwise IP-100,2013-03-16 17:01:00,
2013-03-16 10:06:00,56.0,47.5,29.33,SSW,202,3.0,-999.0,73,0.00,,,0.00,Rainwise IP-100,2013-03-16 17:06:00,
2013-03-16 10:11:00,56.3,47.5,29.33,SSW,202,2.1,-999.0,71,0.00,,,0.00,Rainwise IP-100,2013-03-16 17:11:00,
2013-03-16 10:16:00,57.1,47.0,29.34,ESE,112,4.0,-999.0,69,0.00,,,0.00,Rainwise IP-100,2013-03-16 17:16:00,
2013-03-16 10:21:00,57.1,47.0,29.33,ESE,112,1.6,-999.0,69,0.00,,,0.00,Rainwise IP-100,2013-03-16 17:21:00,
2013-03-16 10:26:00,57.7,47.5,29.34,East,90,2.3,-999.0,68,0.00,,,0.00,Rainwise IP-100,2013-03-16 17:26:00,
2013-03-16 10:31:00,58.7,47.5,29.33,East,90,0.0,-999.0,66,0.00,,,0.00,Rainwise IP-100,2013-03-16 17:31:00,
2013-03-16 10:36:00,59.5,47.5,29.34,ESE,112,0.0,-999.0,64,0.00,,,0.00,Rainwise IP-100,2013-03-16 17:36:00,
2013-03-16 10:41:00,60.6,47.5,29.34,SSE,157,3.3,-999.0,63,0.00,,,0.00,Rainwise IP-100,2013-03-16 17:41:00,
2013-03-16 10:46:00,61.6,47.5,29.33,SSE,157,1.9,-999.0,60,0.00,,,0.00,Rainwise IP-100,2013-03-16 17:46:00,
2013-03-16 10:51:00,62.3,47.5,29.34,ESE,112,2.1,-999.0,58,0.00,,,0.00,Rainwise IP-100,2013-03-16 17:51:00,
2013-03-16 10:56:00,62.4,47.0,29.34,ESE,112,1.6,-999.0,56,0.00,,,0.00,Rainwise IP-100,2013-03-16 17:56:00,
2013-03-16 11:01:00,62.9,47.0,29.33,South,180,0.0,-999.0,55,0.00,,,0.00,Rainwise IP-100,2013-03-16 18:01:00,
2013-03-16 11:06:00,64.3,48.0,29.34,ESE,112,3.5,-999.0,55,0.00,,,0.00,Rainwise IP-100,2013-03-16 18:06:00,
2013-03-16 11:11:00,64.7,47.0,29.33,East,90,1.2,-999.0,53,0.00,,,0.00,Rainwise IP-100,2013-03-16 18:11:00,
2013-03-16 11:16:00,65.2,47.0,29.34,SSE,157,4.2,-999.0,52,0.00,,,0.00,Rainwise IP-100,2013-03-16 18:16:00,
2013-03-16 11:21:00,66.2,47.5,29.33,SSE,157,4.2,-999.0,51,0.00,,,0.00,Rainwise IP-100,2013-03-16 18:21:00,
2013-03-16 11:26:00,66.3,47.5,29.33,SSW,202,2.6,-999.0,51,0.00,,,0.00,Rainwise IP-100,2013-03-16 18:26:00,
2013-03-16 11:31:00,66.6,47.5,29.33,SSE,157,4.0,-999.0,50,0.00,,,0.00,Rainwise IP-100,2013-03-16 18:31:00,
2013-03-16 11:36:00,67.0,47.0,29.33,SSE,157,4.0,-999.0,48,0.00,,,0.00,Rainwise IP-100,2013-03-16 18:36:00,
2013-03-16 11:41:00,67.5,45.0,29.33,SSE,157,3.3,-999.0,44,0.00,,,0.00,Rainwise IP-100,2013-03-16 18:41:00,
2013-03-16 11:46:00,68.0,44.0,29.32,SSW,202,3.7,-999.0,42,0.00,,,0.00,Rainwise IP-100,2013-03-16 18:46:00,
2013-03-16 11:51:00,68.6,44.0,29.32,SSE,157,3.7,-999.0,42,0.00,,,0.00,Rainwise IP-100,2013-03-16 18:51:00,
2013-03-16 11:56:00,68.8,44.0,29.32,SSW,202,5.1,-999.0,41,0.00,,,0.00,Rainwise IP-100,2013-03-16 18:56:00,
2013-03-16 12:01:00,68.9,43.0,29.31,SSE,157,3.0,-999.0,39,0.00,,,0.00,Rainwise IP-100,2013-03-16 19:01:00,
2013-03-16 12:06:00,69.2,42.0,29.31,SE,135,3.3,-999.0,38,0.00,,,0.00,Rainwise IP-100,2013-03-16 19:06:00,
2013-03-16 12:11:00,69.9,42.0,29.32,SSE,157,3.7,-999.0,37,0.00,,,0.00,Rainwise IP-100,2013-03-16 19:11:00,
2013-03-16 12:16:00,70.5,42.0,29.31,SSE,157,3.5,-999.0,36,0.00,,,0.00,Rainwise IP-100,2013-03-16 19:16:00,
2013-03-16 12:21:00,71.0,42.0,29.31,SSE,157,3.7,-999.0,35,0.00,,,0.00,Rainwise IP-100,2013-03-16 19:21:00,
2013-03-16 12:26:00,71.2,40.0,29.31,SE,135,0.0,-999.0,33,0.00,,,0.00,Rainwise IP-100,2013-03-16 19:26:00,
2013-03-16 12:31:00,71.5,39.0,29.31,ESE,112,1.4,-999.0,31,0.00,,,0.00,Rainwise IP-100,2013-03-16 19:31:00,
2013-03-16 12:36:00,71.9,38.0,29.31,SW,225,1.6,-999.0,29,0.00,,,0.00,Rainwise IP-100,2013-03-16 19:36:00,
2013-03-16 12:41:00,72.4,38.0,29.30,SSW,202,3.5,-999.0,29,0.00,,,0.00,Rainwise IP-100,2013-03-16 19:41:00,
2013-03-16 12:46:00,73.2,40.0,29.30,SSW,202,5.8,-999.0,30,0.00,,,0.00,Rainwise IP-100,2013-03-16 19:46:00,
2013-03-16 12:51:00,73.9,40.0,29.29,SSW,202,1.9,-999.0,29,0.00,,,0.00,Rainwise IP-100,2013-03-16 19:51:00,
2013-03-16 12:56:00,74.6,38.0,29.29,NNE,22,4.2,-999.0,27,0.00,,,0.00,Rainwise IP-100,2013-03-16 19:56:00,
2013-03-16 13:01:00,74.3,37.0,29.29,North,360,2.8,-999.0,26,0.00,,,0.00,Rainwise IP-100,2013-03-16 20:01:00,
2013-03-16 13:06:00,74.5,36.0,29.28,NNW,337,1.9,-999.0,24,0.00,,,0.00,Rainwise IP-100,2013-03-16 20:06:00,
2013-03-16 13:11:00,75.2,33.0,29.29,North,360,4.0,-999.0,22,0.00,,,0.00,Rainwise IP-100,2013-03-16 20:11:00,
2013-03-16 13:16:00,75.2,33.0,29.29,WNW,292,2.1,-999.0,22,0.00,,,0.00,Rainwise IP-100,2013-03-16 20:16:00,
2013-03-16 13:21:00,75.2,33.0,29.28,NNW,337,0.0,-999.0,22,0.00,,,0.00,Rainwise IP-100,2013-03-16 20:21:00,
2013-03-16 13:26:00,75.3,35.0,29.28,NNW,337,2.6,-999.0,23,0.00,,,0.00,Rainwise IP-100,2013-03-16 20:26:00,
2013-03-16 13:31:00,75.7,35.0,29.28,West,270,0.0,-999.0,23,0.00,,,0.00,Rainwise IP-100,2013-03-16 20:31:00,
2013-03-16 13:36:00,76.2,37.0,29.28,WSW,247,0.0,-999.0,24,0.00,,,0.00,Rainwise IP-100,2013-03-16 20:36:00,
2013-03-16 13:41:00,76.4,38.0,29.28,ENE,67,0.0,-999.0,25,0.00,,,0.00,Rainwise IP-100,2013-03-16 20:41:00,
2013-03-16 13:46:00,76.1,37.0,29.28,SSE,157,1.4,-999.0,24,0.00,,,0.00,Rainwise IP-100,2013-03-16 20:46:00,
2013-03-16 13:51:00,75.2,39.0,29.28,SSE,157,0.0,-999.0,27,0.00,,,0.00,Rainwise IP-100,2013-03-16 20:51:00,
2013-03-16 13:56:00,74.5,43.0,29.28,ESE,112,2.3,-999.0,32,0.00,,,0.00,Rainwise IP-100,2013-03-16 20:56:00,
2013-03-16 14:01:00,74.8,45.0,29.27,SSE,157,6.1,-999.0,34,0.00,,,0.00,Rainwise IP-100,2013-03-16 21:01:00,
2013-03-16 14:06:00,74.9,44.0,29.27,SE,135,4.2,-999.0,33,0.00,,,0.00,Rainwise IP-100,2013-03-16 21:06:00,
2013-03-16 14:11:00,74.3,43.0,29.27,SSE,157,7.5,-999.0,32,0.00,,,0.00,Rainwise IP-100,2013-03-16 21:11:00,
2013-03-16 14:16:00,74.1,41.0,29.27,SSE,157,4.9,-999.0,31,0.00,,,0.00,Rainwise IP-100,2013-03-16 21:16:00,
2013-03-16 14:21:00,74.4,41.0,29.27,WSW,247,5.6,-999.0,30,0.00,,,0.00,Rainwise IP-100,2013-03-16 21:21:00,
2013-03-16 14:26:00,75.0,41.0,29.27,SSE,157,4.0,-999.0,29,0.00,,,0.00,Rainwise IP-100,2013-03-16 21:26:00,
2013-03-16 14:31:00,75.0,40.0,29.26,South,180,7.0,-999.0,28,0.00,,,0.00,Rainwise IP-100,2013-03-16 21:31:00,
2013-03-16 14:36:00,74.7,40.0,29.25,SSW,202,10.0,-999.0,29,0.00,,,0.00,Rainwise IP-100,2013-03-16 21:36:00,
2013-03-16 14:41:00,74.9,41.0,29.26,NNE,22,5.4,-999.0,30,0.00,,,0.00,Rainwise IP-100,2013-03-16 21:41:00,
2013-03-16 14:46:00,75.7,38.0,29.25,North,360,3.5,-999.0,26,0.00,,,0.00,Rainwise IP-100,2013-03-16 21:46:00,
2013-03-16 14:51:00,76.4,36.0,29.26,SSW,202,1.6,-999.0,23,0.00,,,0.00,Rainwise IP-100,2013-03-16 21:51:00,
2013-03-16 14:56:00,76.5,38.0,29.25,SE,135,2.8,-999.0,25,0.00,,,0.00,Rainwise IP-100,2013-03-16 21:56:00,
2013-03-16 15:01:00,76.4,41.0,29.26,WNW,292,1.2,-999.0,28,0.00,,,0.00,Rainwise IP-100,2013-03-16 22:01:00,
2013-03-16 15:07:00,76.1,41.0,29.25,West,270,7.7,-999.0,29,0.00,,,0.00,Rainwise IP-100,2013-03-16 22:07:00,
2013-03-16 15:12:00,75.9,40.0,29.25,SSW,202,3.7,-999.0,28,0.00,,,0.00,Rainwise IP-100,2013-03-16 22:12:00,
2013-03-16 15:17:00,75.7,41.0,29.25,WSW,247,3.7,-999.0,29,0.00,,,0.00,Rainwise IP-100,2013-03-16 22:17:00,
2013-03-16 15:22:00,75.4,41.0,29.25,SSW,202,9.6,-999.0,29,0.00,,,0.00,Rainwise IP-100,2013-03-16 22:22:00,
2013-03-16 15:27:00,75.3,41.0,29.25,SW,225,6.5,-999.0,29,0.00,,,0.00,Rainwise IP-100,2013-03-16 22:27:00,
2013-03-16 15:32:00,75.2,40.0,29.25,WSW,247,7.5,-999.0,28,0.00,,,0.00,Rainwise IP-100,2013-03-16 22:32:00,
2013-03-16 15:37:00,74.9,41.0,29.25,WSW,247,3.3,-999.0,29,0.00,,,0.00,Rainwise IP-100,2013-03-16 22:37:00,
2013-03-16 15:42:00,74.8,40.0,29.25,West,270,5.4,-999.0,29,0.00,,,0.00,Rainwise IP-100,2013-03-16 22:42:00,
2013-03-16 15:47:00,74.9,40.0,29.25,WSW,247,4.4,-999.0,28,0.00,,,0.00,Rainwise IP-100,2013-03-16 22:47:00,
2013-03-16 15:52:00,75.2,39.0,29.25,SSW,202,4.2,-999.0,27,0.00,,,0.00,Rainwise IP-100,2013-03-16 22:52:00,
2013-03-16 15:57:00,75.4,40.0,29.25,WSW,247,6.3,-999.0,28,0.00,,,0.00,Rainwise IP-100,2013-03-16 22:57:00,
2013-03-16 16:02:00,75.3,39.0,29.25,SW,225,7.7,-999.0,27,0.00,,,0.00,Rainwise IP-100,2013-03-16 23:02:00,
2013-03-16 16:07:00,75.0,38.0,29.25,WSW,247,3.3,-999.0,26,0.00,,,0.00,Rainwise IP-100,2013-03-16 23:07:00,
2013-03-16 16:12:00,74.8,38.0,29.25,West,270,5.8,-999.0,27,0.00,,,0.00,Rainwise IP-100,2013-03-16 23:12:00,
2013-03-16 16:17:00,74.6,38.0,29.25,NNW,337,3.0,-999.0,26,0.00,,,0.00,Rainwise IP-100,2013-03-16 23:17:00,
2013-03-16 16:22:00,74.8,37.0,29.25,West,270,2.8,-999.0,25,0.00,,,0.00,Rainwise IP-100,2013-03-16 23:22:00,
2013-03-16 16:27:00,75.0,36.0,29.25,WSW,247,5.6,-999.0,24,0.00,,,0.00,Rainwise IP-100,2013-03-16 23:27:00,
2013-03-16 16:32:00,74.7,36.0,29.25,NNE,22,0.0,-999.0,24,0.00,,,0.00,Rainwise IP-100,2013-03-16 23:32:00,
2013-03-16 16:37:00,74.4,36.0,29.25,West,270,1.9,-999.0,24,0.00,,,0.00,Rainwise IP-100,2013-03-16 23:37:00,
2013-03-16 16:42:00,74.2,37.0,29.25,North,360,1.2,-999.0,25,0.00,,,0.00,Rainwise IP-100,2013-03-16 23:42:00,
2013-03-16 16:47:00,73.9,36.0,29.25,WSW,247,2.3,-999.0,25,0.00,,,0.00,Rainwise IP-100,2013-03-16 23:47:00,
2013-03-16 16:52:00,73.7,35.0,29.25,WSW,247,6.8,-999.0,24,0.00,,,0.00,Rainwise IP-100,2013-03-16 23:52:00,
2013-03-16 16:57:00,73.8,35.0,29.25,WNW,292,0.0,-999.0,24,0.00,,,0.00,Rainwise IP-100,2013-03-16 23:57:00,
2013-03-16 17:02:00,74.1,35.0,29.25,NNW,337,3.7,-999.0,23,0.00,,,0.00,Rainwise IP-100,2013-03-17 00:02:00,
2013-03-16 17:07:00,74.3,33.0,29.25,WNW,292,2.6,-999.0,22,0.00,,,0.00,Rainwise IP-100,2013-03-17 00:07:00,
2013-03-16 17:12:00,74.1,33.0,29.25,WSW,247,3.0,-999.0,22,0.00,,,0.00,Rainwise IP-100,2013-03-17 00:12:00,
2013-03-16 17:17:00,73.7,33.0,29.25,West,270,3.0,-999.0,23,0.00,,,0.00,Rainwise IP-100,2013-03-17 00:17:00,
2013-03-16 17:22:00,73.1,35.0,29.25,WNW,292,1.9,-999.0,24,0.00,,,0.00,Rainwise IP-100,2013-03-17 00:22:00,
2013-03-16 17:27:00,72.5,33.0,29.25,WSW,247,5.6,-999.0,24,0.00,,,0.00,Rainwise IP-100,2013-03-17 00:27:00,
2013-03-16 17:32:00,71.9,33.0,29.25,WNW,292,0.0,-999.0,24,0.00,,,0.00,Rainwise IP-100,2013-03-17 00:32:00,
2013-03-16 17:37:00,71.3,35.0,29.25,WNW,292,0.0,-999.0,26,0.00,,,0.00,Rainwise IP-100,2013-03-17 00:37:00,
2013-03-16 17:42:00,71.0,35.0,29.25,NNW,337,1.9,-999.0,26,0.00,,,0.00,Rainwise IP-100,2013-03-17 00:42:00,
2013-03-16 17:47:00,70.7,35.0,29.25,NNW,337,3.7,-999.0,26,0.00,,,0.00,Rainwise IP-100,2013-03-17 00:47:00,
2013-03-16 17:52:00,70.7,35.0,29.25,NNW,337,0.0,-999.0,27,0.00,,,0.00,Rainwise IP-100,2013-03-17 00:52:00,
2013-03-16 17:57:00,70.7,35.0,29.25,NNW,337,2.1,-999.0,27,0.00,,,0.00,Rainwise IP-100,2013-03-17 00:57:00,
2013-03-16 18:02:00,70.6,36.0,29.25,NNW,337,0.0,-999.0,28,0.00,,,0.00,Rainwise IP-100,2013-03-17 01:02:00,
2013-03-16 18:07:00,70.2,36.0,29.25,WNW,292,0.0,-999.0,28,0.00,,,0.00,Rainwise IP-100,2013-03-17 01:07:00,
2013-03-16 18:12:00,69.9,36.0,29.25,NNW,337,1.4,-999.0,29,0.00,,,0.00,Rainwise IP-100,2013-03-17 01:12:00,
2013-03-16 18:17:00,69.7,36.0,29.25,NNW,337,0.0,-999.0,29,0.00,,,0.00,Rainwise IP-100,2013-03-17 01:17:00,
2013-03-16 18:22:00,69.6,36.0,29.26,North,360,6.3,-999.0,29,0.00,,,0.00,Rainwise IP-100,2013-03-17 01:22:00,
2013-03-16 18:27:00,69.5,37.0,29.26,NNE,22,2.8,-999.0,30,0.00,,,0.00,Rainwise IP-100,2013-03-17 01:27:00,
2013-03-16 18:32:00,69.2,37.0,29.26,North,360,3.0,-999.0,31,0.00,,,0.00,Rainwise IP-100,2013-03-17 01:32:00,
2013-03-16 18:37:00,68.9,38.0,29.26,NNW,337,1.6,-999.0,32,0.00,,,0.00,Rainwise IP-100,2013-03-17 01:37:00,
2013-03-16 18:42:00,68.5,37.0,29.26,NNW,337,2.3,-999.0,32,0.00,,,0.00,Rainwise IP-100,2013-03-17 01:42:00,
2013-03-16 18:47:00,68.1,37.0,29.26,WNW,292,0.0,-999.0,32,0.00,,,0.00,Rainwise IP-100,2013-03-17 01:47:00,
2013-03-16 18:52:00,67.6,37.0,29.26,WNW,292,0.0,-999.0,33,0.00,,,0.00,Rainwise IP-100,2013-03-17 01:52:00,
2013-03-16 18:57:00,67.0,38.0,29.26,WNW,292,0.0,-999.0,35,0.00,,,0.00,Rainwise IP-100,2013-03-17 01:57:00,
2013-03-16 19:02:00,66.1,39.0,29.26,WNW,292,0.0,-999.0,37,0.00,,,0.00,Rainwise IP-100,2013-03-17 02:02:00,
2013-03-16 19:07:00,64.9,40.0,29.27,NW,315,1.2,-999.0,40,0.00,,,0.00,Rainwise IP-100,2013-03-17 02:07:00,
2013-03-16 19:12:00,63.6,39.0,29.27,NW,315,1.6,-999.0,41,0.00,,,0.00,Rainwise IP-100,2013-03-17 02:12:00,
2013-03-16 19:17:00,62.8,38.0,29.27,NW,315,0.0,-999.0,40,0.00,,,0.00,Rainwise IP-100,2013-03-17 02:17:00,
2013-03-16 19:22:00,62.6,38.0,29.27,NW,315,0.0,-999.0,40,0.00,,,0.00,Rainwise IP-100,2013-03-17 02:22:00,
2013-03-16 19:27:00,62.3,38.0,29.27,NW,315,0.0,-999.0,41,0.00,,,0.00,Rainwise IP-100,2013-03-17 02:27:00,
2013-03-16 19:32:00,61.6,39.0,29.27,NW,315,0.0,-999.0,43,0.00,,,0.00,Rainwise IP-100,2013-03-17 02:32:00,
2013-03-16 19:37:00,61.0,38.0,29.27,NW,315,0.0,-999.0,43,0.00,,,0.00,Rainwise IP-100,2013-03-17 02:37:00,
2013-03-16 19:42:00,60.7,38.0,29.27,NNW,337,0.0,-999.0,43,0.00,,,0.00,Rainwise IP-100,2013-03-17 02:42:00,
2013-03-16 19:47:00,60.9,38.0,29.28,NNE,22,0.0,-999.0,43,0.00,,,0.00,Rainwise IP-100,2013-03-17 02:47:00,
2013-03-16 19:52:00,60.9,38.0,29.28,North,360,2.6,-999.0,43,0.00,,,0.00,Rainwise IP-100,2013-03-17 02:52:00,
2013-03-16 19:57:00,60.9,38.0,29.28,NNW,337,5.8,-999.0,43,0.00,,,0.00,Rainwise IP-100,2013-03-17 02:57:00,
2013-03-16 20:02:00,61.8,39.0,29.28,NNE,22,1.9,-999.0,42,0.00,,,0.00,Rainwise IP-100,2013-03-17 03:02:00,
2013-03-16 20:07:00,61.9,38.0,29.28,NNE,22,2.6,-999.0,41,0.00,,,0.00,Rainwise IP-100,2013-03-17 03:07:00,
2013-03-16 20:12:00,61.0,38.0,29.28,ESE,112,0.0,-999.0,42,0.00,,,0.00,Rainwise IP-100,2013-03-17 03:12:00,
2013-03-16 20:17:00,60.4,38.0,29.29,SW,225,4.7,-999.0,43,0.00,,,0.00,Rainwise IP-100,2013-03-17 03:17:00,
2013-03-16 20:22:00,60.2,38.0,29.29,WSW,247,2.8,-999.0,44,0.00,,,0.00,Rainwise IP-100,2013-03-17 03:22:00,
2013-03-16 20:27:00,59.6,38.0,29.29,West,270,2.1,-999.0,45,0.00,,,0.00,Rainwise IP-100,2013-03-17 03:27:00,
2013-03-16 20:32:00,58.5,39.0,29.29,West,270,3.0,-999.0,48,0.00,,,0.00,Rainwise IP-100,2013-03-17 03:32:00,
2013-03-16 20:37:00,58.3,39.0,29.28,West,270,7.9,-999.0,49,0.00,,,0.00,Rainwise IP-100,2013-03-17 03:37:00,
2013-03-16 20:42:00,58.9,39.0,29.28,West,270,7.0,-999.0,47,0.00,,,0.00,Rainwise IP-100,2013-03-17 03:42:00,
2013-03-16 20:47:00,59.7,38.0,29.29,WNW,292,1.4,-999.0,45,0.00,,,0.00,Rainwise IP-100,2013-03-17 03:47:00,
2013-03-16 20:52:00,60.3,38.0,29.29,NNW,337,3.3,-999.0,43,0.00,,,0.00,Rainwise IP-100,2013-03-17 03:52:00,
2013-03-16 20:57:00,60.8,38.0,29.30,NNW,337,5.1,-999.0,42,0.00,,,0.00,Rainwise IP-100,2013-03-17 03:57:00,
2013-03-16 21:00:00,61.1,37.0,29.29,NNE,22,4.2,-999.0,41,0.00,,,0.00,Rainwise IP-100,2013-03-17 04:00:00,
2013-03-16 21:05:00,61.5,37.0,29.30,NNW,337,0.0,-999.0,40,0.00,,,0.00,Rainwise IP-100,2013-03-17 04:05:00,
2013-03-16 21:06:00,61.6,37.0,29.30,NNW,337,1.2,-999.0,40,0.00,,,0.00,Rainwise IP-100,2013-03-17 04:06:00,
2013-03-16 21:11:00,61.2,37.0,29.30,NNE,22,0.0,-999.0,41,0.00,,,0.00,Rainwise IP-100,2013-03-17 04:11:00,
2013-03-16 21:16:00,60.8,37.0,29.31,NNW,337,0.0,-999.0,41,0.00,,,0.00,Rainwise IP-100,2013-03-17 04:16:00,
2013-03-16 21:21:00,60.6,37.0,29.30,WSW,247,0.0,-999.0,41,0.00,,,0.00,Rainwise IP-100,2013-03-17 04:21:00,
2013-03-16 21:26:00,60.0,37.0,29.31,NNE,22,5.1,-999.0,43,0.00,,,0.00,Rainwise IP-100,2013-03-17 04:26:00,
2013-03-16 21:31:00,59.4,37.0,29.31,East,90,0.0,-999.0,44,0.00,,,0.00,Rainwise IP-100,2013-03-17 04:31:00,
2013-03-16 21:36:00,59.2,38.0,29.32,WSW,247,0.0,-999.0,45,0.00,,,0.00,Rainwise IP-100,2013-03-17 04:36:00,
2013-03-16 21:41:00,58.6,38.0,29.33,ENE,67,0.0,-999.0,46,0.00,,,0.00,Rainwise IP-100,2013-03-17 04:41:00,
2013-03-16 21:46:00,57.8,39.0,29.33,WNW,292,1.6,-999.0,48,0.00,,,0.00,Rainwise IP-100,2013-03-17 04:46:00,
2013-03-16 21:51:00,57.2,38.0,29.33,WNW,292,1.4,-999.0,49,0.00,,,0.00,Rainwise IP-100,2013-03-17 04:51:00,
2013-03-16 21:56:00,56.2,38.0,29.33,WNW,292,0.0,-999.0,50,0.00,,,0.00,Rainwise IP-100,2013-03-17 04:56:00,
2013-03-16 22:01:00,55.5,38.0,29.33,WNW,292,0.0,-999.0,51,0.00,,,0.00,Rainwise IP-100,2013-03-17 05:01:00,
2013-03-16 22:06:00,55.5,38.0,29.33,NNE,22,0.0,-999.0,52,0.00,,,0.00,Rainwise IP-100,2013-03-17 05:06:00,
2013-03-16 22:11:00,55.4,38.0,29.33,NNW,337,0.0,-999.0,53,0.00,,,0.00,Rainwise IP-100,2013-03-17 05:11:00,
2013-03-16 22:16:00,56.0,39.0,29.33,NNE,22,2.8,-999.0,53,0.00,,,0.00,Rainwise IP-100,2013-03-17 05:16:00,
2013-03-16 22:21:00,56.8,39.0,29.33,North,360,3.7,-999.0,51,0.00,,,0.00,Rainwise IP-100,2013-03-17 05:21:00,
2013-03-16 22:26:00,57.3,39.0,29.33,NNW,337,3.5,-999.0,50,0.00,,,0.00,Rainwise IP-100,2013-03-17 05:26:00,
2013-03-16 22:31:00,57.9,39.0,29.33,NNE,22,0.0,-999.0,48,0.00,,,0.00,Rainwise IP-100,2013-03-17 05:31:00,
2013-03-16 22:36:00,58.0,38.0,29.33,NNW,337,0.0,-999.0,47,0.00,,,0.00,Rainwise IP-100,2013-03-17 05:36:00,
2013-03-16 22:41:00,57.8,39.0,29.34,NNW,337,3.5,-999.0,48,0.00,,,0.00,Rainwise IP-100,2013-03-17 05:41:00,
2013-03-16 22:47:00,57.7,38.0,29.34,NNW,337,5.1,-999.0,48,0.00,,,0.00,Rainwise IP-100,2013-03-17 05:47:00,
2013-03-16 22:52:00,57.6,38.0,29.34,NNW,337,0.0,-999.0,48,0.00,,,0.00,Rainwise IP-100,2013-03-17 05:52:00,
2013-03-16 22:57:00,57.1,38.0,29.34,NNW,337,0.0,-999.0,49,0.00,,,0.00,Rainwise IP-100,2013-03-17 05:57:00,
2013-03-16 23:02:00,56.7,38.0,29.34,West,270,0.0,-999.0,50,0.00,,,0.00,Rainwise IP-100,2013-03-17 06:02:00,
2013-03-16 23:07:00,56.4,38.0,29.33,West,270,0.0,-999.0,49,0.00,,,0.00,Rainwise IP-100,2013-03-17 06:07:00,
2013-03-16 23:12:00,56.2,37.0,29.33,NNE,22,1.9,-999.0,49,0.00,,,0.00,Rainwise IP-100,2013-03-17 06:12:00,
2013-03-16 23:17:00,55.7,38.0,29.33,NNE,22,0.0,-999.0,51,0.00,,,0.00,Rainwise IP-100,2013-03-17 06:17:00,
2013-03-16 23:22:00,55.2,37.0,29.34,North,360,0.0,-999.0,51,0.00,,,0.00,Rainwise IP-100,2013-03-17 06:22:00,
2013-03-16 23:27:00,55.5,38.0,29.33,East,90,0.0,-999.0,50,0.00,,,0.00,Rainwise IP-100,2013-03-17 06:27:00,
2013-03-16 23:32:00,55.6,38.0,29.33,East,90,0.0,-999.0,50,0.00,,,0.00,Rainwise IP-100,2013-03-17 06:32:00,
2013-03-16 23:37:00,55.3,37.0,29.34,NNE,22,5.6,-999.0,51,0.00,,,0.00,Rainwise IP-100,2013-03-17 06:37:00,
2013-03-16 23:42:00,56.1,38.0,29.34,NNE,22,0.0,-999.0,50,0.00,,,0.00,Rainwise IP-100,2013-03-17 06:42:00,
2013-03-16 23:47:00,56.7,38.0,29.34,NNE,22,3.0,-999.0,49,0.00,,,0.00,Rainwise IP-100,2013-03-17 06:47:00,
2013-03-16 23:52:00,56.0,37.0,29.34,NNE,22,0.0,-999.0,49,0.00,,,0.00,Rainwise IP-100,2013-03-17 06:52:00,
2013-03-16 23:57:00,55.6,37.0,29.34,NNE,22,0.0,-999.0,49,0.00,,,0.00,Rainwise IP-100,2013-03-17 06:57:00,